This is the latest recevied weather packets stored in our database for station/object DB0MW-13. If no packets are shown the sender has not sent any weather packets the latest 10 day(s).
| Time | Temp. | Humidity | Pressure | Rain* | Wind** | Luminosity | Snow |
|---|---|---|---|---|---|---|---|
| 1777671600 | 14.44° C | 61% | 1024.3 hPa | 0 mm | - | - | - |
| 1777671300 | 15° C | 61% | 1024.3 hPa | 0 mm | - | - | - |
| 1777671000 | 15° C | 60% | 1024.3 hPa | 0 mm | - | - | - |
| 1777670700 | 15° C | 60% | 1024.1 hPa | 0 mm | - | - | - |
| 1777670400 | 15° C | 61% | 1024.2 hPa | 0 mm | - | - | - |
| 1777670100 | 15.56° C | 59% | 1024 hPa | 0 mm | - | - | - |
| 1777669800 | 15.56° C | 59% | 1024.2 hPa | 0 mm | - | - | - |
| 1777669500 | 15.56° C | 58% | 1024.2 hPa | 0 mm | - | - | - |
| 1777669201 | 15.56° C | 59% | 1024.1 hPa | 0 mm | - | - | - |
| 1777668901 | 16.11° C | 58% | 1024.1 hPa | 0 mm | - | - | - |
| 1777668601 | 16.11° C | 59% | 1024.2 hPa | 0 mm | - | - | - |
| 1777668301 | 16.11° C | 58% | 1024.1 hPa | 0 mm | - | - | - |
| 1777668001 | 16.67° C | 58% | 1024.1 hPa | 0 mm | - | - | - |
| 1777667701 | 16.67° C | 57% | 1024.1 hPa | 0 mm | - | - | - |
| 1777667401 | 16.67° C | 56% | 1024.1 hPa | 0 mm | - | - | - |
| 1777667101 | 17.22° C | 57% | 1024.1 hPa | 0 mm | - | - | - |
| 1777666801 | 17.22° C | 55% | 1024.2 hPa | 0 mm | - | - | - |
| 1777666501 | 17.22° C | 53% | 1024 hPa | 0 mm | - | - | - |
| 1777666201 | 17.78° C | 52% | 1024.2 hPa | 0 mm | - | - | - |
| 1777665901 | 17.78° C | 52% | 1024.1 hPa | 0 mm | - | - | - |
| 1777665601 | 18.33° C | 52% | 1023.8 hPa | 0 mm | - | - | - |
| 1777665300 | 18.33° C | 51% | 1024 hPa | 0 mm | - | - | - |
| 1777665001 | 18.33° C | 51% | 1024.2 hPa | 0 mm | - | - | - |
| 1777664700 | 18.89° C | 50% | 1023.9 hPa | 0 mm | - | - | - |
| 1777664400 | 19.44° C | 49% | 1023.8 hPa | 0 mm | - | - | - |
* Rain latest hour (hover to see other rain measurements)
** Current wind speed in m/s (hover to see current wind gust speed)